This is the latest recevied weather packets stored in our database for station/object N6GPM. If no packets are shown the sender has not sent any weather packets the latest 10 day(s).
| Time | Temp. | Humidity | Pressure | Rain* | Wind** | Luminosity | Snow |
|---|---|---|---|---|---|---|---|
| 1777754594 | 25° C | 50% | 1015.9 hPa | 0 mm | - | 566 W/m² | - |
| 1777754292 | 25° C | 50% | 1016.1 hPa | 0 mm | - | 607 W/m² | - |
| 1777753989 | 25° C | 51% | 1016 hPa | 0 mm | - | 652 W/m² | - |
| 1777753689 | 24.44° C | 51% | 1016.1 hPa | 0 mm | - | 547 W/m² | - |
| 1777753387 | 24.44° C | 53% | 1016 hPa | 0 mm | - | 687 W/m² | - |
| 1777753085 | 24.44° C | 56% | 1016.2 hPa | 0 mm | - | 662 W/m² | - |
| 1777752781 | 24.44° C | 54% | 1016.2 hPa | 0 mm | - | 682 W/m² | - |
| 1777752477 | 24.44° C | 54% | 1016.6 hPa | 0 mm | - | 636 W/m² | - |
| 1777752173 | 23.89° C | 55% | 1016.6 hPa | 0 mm | - | 663 W/m² | - |
| 1777751872 | 23.89° C | 58% | 1016.4 hPa | 0 mm | - | 758 W/m² | - |
| 1777751568 | 23.89° C | 58% | 1016.7 hPa | 0 mm | - | 613 W/m² | - |
| 1777751264 | 23.33° C | 57% | 1016.7 hPa | 0 mm | - | 749 W/m² | - |
| 1777750962 | 23.33° C | 59% | 1016.6 hPa | 0 mm | - | 624 W/m² | - |
| 1777750657 | 23.33° C | 58% | 1016.9 hPa | 0 mm | - | 687 W/m² | - |
| 1777750355 | 23.33° C | 57% | 1016.7 hPa | 0 mm | - | 710 W/m² | - |
| 1777750055 | 23.33° C | 56% | 1016.9 hPa | 0 mm | - | 730 W/m² | - |
| 1777749752 | 22.78° C | 60% | 1016.8 hPa | 0 mm | - | 706 W/m² | - |
| 1777749449 | 22.22° C | 62% | 1017 hPa | 0 mm | - | 718 W/m² | - |
| 1777749147 | 22.78° C | 61% | 1016.9 hPa | 0 mm | - | 603 W/m² | - |
| 1777748844 | 22.78° C | 62% | 1016.8 hPa | 0 mm | - | 703 W/m² | - |
| 1777748542 | 22.78° C | 60% | 1017.3 hPa | 0 mm | - | 652 W/m² | - |
| 1777748241 | 21.67° C | 64% | 1017.3 hPa | 0 mm | - | 731 W/m² | - |
| 1777747938 | 22.22° C | 64% | 1017.5 hPa | 0 mm | - | 753 W/m² | - |
| 1777747634 | 21.67° C | 65% | 1017.5 hPa | 0 mm | - | 798 W/m² | - |
| 1777747330 | 21.67° C | 67% | 1017.5 hPa | 0 mm | - | 810 W/m² | - |
* Rain latest hour (hover to see other rain measurements)
** Current wind speed in m/s (hover to see current wind gust speed)